This is the latest recevied weather packets stored in our database for station/object SV7RNH. If no packets are shown the sender has not sent any weather packets the latest 10 day(s).
| Time | Temp. | Humidity | Pressure | Rain* | Wind** | Luminosity | Snow |
|---|---|---|---|---|---|---|---|
| 1777722004 | 21.11° C | 13% | 1021.4 hPa | 0 mm | - | - | - |
| 1777721703 | 21.11° C | 13% | 1021.5 hPa | 0 mm | - | - | - |
| 1777721404 | 20.56° C | 16% | 1021.6 hPa | 0 mm | - | - | - |
| 1777721104 | 20° C | 17% | 1021.8 hPa | 0 mm | - | - | - |
| 1777720803 | 20° C | 17% | 1022.1 hPa | 0 mm | - | - | - |
| 1777720503 | 19.44° C | 17% | 1021.9 hPa | 0 mm | - | - | - |
| 1777720204 | 20° C | 16% | 1022.1 hPa | 0 mm | - | - | - |
| 1777719904 | 20° C | 17% | 1022.2 hPa | 0 mm | - | - | - |
| 1777719603 | 20° C | 17% | 1022.1 hPa | 0 mm | - | - | - |
| 1777719303 | 18.89° C | 20% | 1022.1 hPa | 0 mm | - | - | - |
| 1777719004 | 18.89° C | 19% | 1022.1 hPa | 0 mm | - | - | - |
| 1777718704 | 18.89° C | 19% | 1022.2 hPa | 0 mm | - | - | - |
| 1777718403 | 18.89° C | 19% | 1022.2 hPa | 0 mm | - | - | - |
| 1777718103 | 18.89° C | 19% | 1022.3 hPa | 0 mm | - | - | - |
| 1777717804 | 18.89° C | 19% | 1022.4 hPa | 0 mm | - | - | - |
| 1777717504 | 18.33° C | 21% | 1022.4 hPa | 0 mm | - | - | - |
| 1777717203 | 17.78° C | 20% | 1022.5 hPa | 0 mm | - | - | - |
| 1777716903 | 17.78° C | 21% | 1022.6 hPa | 0 mm | - | - | - |
| 1777716604 | 17.78° C | 21% | 1022.6 hPa | 0 mm | - | - | - |
| 1777716304 | 17.22° C | 22% | 1022.7 hPa | 0 mm | - | - | - |
| 1777716003 | 17.22° C | 21% | 1022.8 hPa | 0 mm | - | - | - |
| 1777715703 | 16.67° C | 22% | 1022.8 hPa | 0 mm | - | - | - |
| 1777715404 | 16.67° C | 23% | 1022.8 hPa | 0 mm | - | - | - |
| 1777715104 | 17.22° C | 22% | 1022.9 hPa | 0 mm | - | - | - |
| 1777714803 | 16.67° C | 23% | 1022.8 hPa | 0 mm | - | - | - |
* Rain latest hour (hover to see other rain measurements)
** Current wind speed in m/s (hover to see current wind gust speed)